Location: Poprad
(49.0500°N, 20.3000°E)
Time: 06:10:28
(UTC+02:00)

NOAA 18 - Visible Passes

Search period start: 16 April 2024 00:00
Search period end: 26 April 2024 00:00
Orbit: 839 x 858 km, 98.9° (Epoch: 15 April)

Date Brightness Start Highest point End Pass type
(mag) Time Alt. Az. Time Alt. Az. Time Alt. Az.
16 Apr 7.4 20:20:41 10° ENE 20:21:38 10° NE 20:22:35 10° NE visible
16 Apr 5.6 21:59:29 39° ESE 22:01:02 49° ENE 22:06:23 10° N visible
16 Apr 6.5 23:41:26 29° WSW 23:41:54 29° W 23:46:43 10° NW visible
17 Apr 5.9 21:46:46 31° ESE 21:48:39 40° ENE 21:53:48 10° N visible
17 Apr 6.2 23:28:43 35° WSW 23:29:20 36° W 23:34:27 10° NNW visible
18 Apr 6.2 21:34:04 24° ESE 21:36:17 33° ENE 21:41:11 10° N visible
18 Apr 5.8 23:16:01 43° WSW 23:16:47 45° W 23:22:07 10° NNW visible
19 Apr 6.4 21:21:21 19° E 21:23:56 27° ENE 21:28:32 10° N visible
19 Apr 5.5 23:03:18 50° SW 23:04:16 57° W 23:09:45 10° NNW visible
20 Apr 6.7 21:08:38 15° E 21:11:38 23° ENE 21:15:50 10° N visible
20 Apr 5.3 22:50:35 54° SSW 22:51:46 71° WSW 22:57:20 10° NNW visible
21 Apr 7.5 00:32:32 11° W 00:33:24 11° W 00:35:08 10° WNW visible
21 Apr 6.9 20:55:55 11° E 20:59:19 19° NE 21:03:04 10° NNE visible
21 Apr 5.1 22:37:52 53° SSE 22:39:17 87° WSW 22:44:52 10° NNW visible
22 Apr 7.3 00:19:49 14° W 00:20:44 15° W 00:23:45 10° NW visible
22 Apr 7.1 20:43:53 10° E 20:47:03 16° NE 20:50:12 10° NNE visible
22 Apr 5.2 22:25:09 47° SSE 22:26:49 77° ENE 22:32:23 10° NNW visible
23 Apr 7.1 00:07:06 18° WSW 00:08:05 19° W 00:11:53 10° NW visible
23 Apr 7.2 20:32:24 10° ENE 20:34:48 13° NE 20:37:10 10° NNE visible
23 Apr 5.3 22:12:27 39° SE 22:14:23 62° ENE 22:19:52 10° N visible
23 Apr 6.8 23:54:24 22° WSW 23:55:27 23° W 23:59:49 10° NW visible
24 Apr 7.4 20:21:30 10° ENE 20:22:33 11° NE 20:23:37 10° NE visible
24 Apr 5.6 21:59:44 32° ESE 22:01:58 50° ENE 22:07:19 10° N visible
24 Apr 6.5 23:41:41 27° WSW 23:42:51 29° W 23:47:38 10° NW visible
25 Apr 5.9 21:47:01 26° ESE 21:49:35 41° ENE 21:54:44 10° N visible
25 Apr 6.2 23:28:58 32° SW 23:30:16 36° W 23:35:22 10° NNW visible
